,,,PA_Meas_PMT16A,,PR_Meas_QMR101_102,,RH_Meas_QMH101,,SR_Meas_QMS101,,TA_Meas_QMH101,,GenWind,,GenWind,
date,time,status,PA,status,PR,status,RH,status,SR,status,TA,status,DirAvg,status,SpdAvg,
2011-04-19, 00:00:04,VALID,999.614,VALID,0,VALID,91.8606,VALID,0,VALID,23.4475,VALID,43,VALID,0.84375,
2011-04-19, 00:01:04,VALID,999.622,VALID,0,VALID,91.8759,VALID,0,VALID,23.428,VALID,43,VALID,0.582812,
2011-04-19, 00:02:04,VALID,999.593,VALID,0,VALID,91.9217,VALID,0,VALID,23.4085,VALID,43,VALID,0.435937,
2011-04-19, 00:03:04,VALID,999.583,VALID,0,VALID,91.9293,VALID,0,VALID,23.3908,VALID,43,VALID,0.259375,
2011-04-19, 00:04:04,VALID,999.569,VALID,0,VALID,91.9522,VALID,0,VALID,23.35,VALID,43,VALID,0,
2011-04-19, 00:05:04,VALID,999.549,VALID,0,VALID,91.9751,VALID,0,VALID,23.3305,VALID,43,VALID,0,
2011-04-19, 00:06:04,VALID,999.549,VALID,0,VALID,91.9903,VALID,0,VALID,23.3305,VALID,43,VALID,0,
2011-04-19, 00:07:04,VALID,999.534,VALID,0,VALID,92.0361,VALID,0,VALID,23.311,VALID,43,VALID,0,
2011-04-19, 00:08:04,VALID,999.514,VALID,0,VALID,92.059,VALID,0,VALID,23.2915,VALID,43,VALID,0,
2011-04-19, 00:09:04,VALID,999.511,VALID,0,VALID,92.0666,VALID,0,VALID,23.2524,VALID,43,VALID,0,
2011-04-19, 00:10:04,VALID,999.526,VALID,0,VALID,92.1048,VALID,0,VALID,23.2524,VALID,43,VALID,0,
2011-04-19, 00:11:04,VALID,999.551,VALID,0,VALID,92.0971,VALID,0,VALID,23.2329,VALID,43,VALID,0,
2011-04-19, 00:12:04,VALID,999.535,VALID,0,VALID,92.1582,VALID,0,VALID,23.2329,VALID,43,VALID,0,
2011-04-19, 00:13:04,VALID,999.569,VALID,0,VALID,92.1887,VALID,0,VALID,23.2737,VALID,43,VALID,0,
2011-04-19, 00:14:04,VALID,999.566,VALID,0,VALID,92.2726,VALID,0,VALID,23.2719,VALID,43,VALID,0,
2011-04-19, 00:15:04,VALID,999.565,VALID,0,VALID,92.2879,VALID,0,VALID,23.2932,VALID,43,VALID,0.242578,
2011-04-19, 00:16:04,VALID,999.554,VALID,0,VALID,92.3337,VALID,0,VALID,23.2915,VALID,43,VALID,0,
2011-04-19, 00:17:04,VALID,999.555,VALID,0,VALID,92.3718,VALID,0,VALID,23.311,VALID,43,VALID,0.219922,
2011-04-19, 00:18:04,VALID,999.525,VALID,0,VALID,92.4481,VALID,0,VALID,23.35,VALID,43,VALID,0.559766,
2011-04-19, 00:19:04,VALID,999.493,VALID,0,VALID,92.4939,VALID,0,VALID,23.389,VALID,43,VALID,0.491406,
2011-04-19, 00:20:04,VALID,999.484,VALID,0,VALID,92.5473,VALID,0,VALID,23.428,VALID,43,VALID,0.246094,
2011-04-19, 00:21:04,VALID,999.452,VALID,0,VALID,92.5473,VALID,0,VALID,23.4475,VALID,43,VALID,0.265625,
2011-04-19, 00:22:04,VALID,999.458,VALID,0,VALID,92.5778,VALID,0,VALID,23.428,VALID,43,VALID,0,
2011-04-19, 00:23:04,VALID,999.437,VALID,0,VALID,92.5702,VALID,0,VALID,23.4085,VALID,43,VALID,0.0800781,
2011-04-19, 00:24:04,VALID,999.447,VALID,0,VALID,92.5931,VALID,0,VALID,23.389,VALID,43,VALID,0.308984,
2011-04-19, 00:25:04,VALID,999.457,VALID,0,VALID,92.5854,VALID,0,VALID,23.4085,VALID,43,VALID,0.390234,
2011-04-19, 00:26:04,VALID,999.484,VALID,0,VALID,92.6007,VALID,0,VALID,23.428,VALID,43,VALID,0.384375,
2011-04-19, 00:27:04,VALID,999.499,VALID,0,VALID,92.5931,VALID,0,VALID,23.4298,VALID,43,VALID,0.377734,
2011-04-19, 00:28:04,VALID,999.464,VALID,0,VALID,92.5931,VALID,0,VALID,23.4085,VALID,43,VALID,0.364062,
2011-04-19, 00:29:04,VALID,999.496,VALID,0,VALID,92.5931,VALID,0,VALID,23.3872,VALID,43,VALID,0.527734,
2011-04-19, 00:30:04,VALID,999.471,VALID,0,VALID,92.5626,VALID,0,VALID,23.389,VALID,43,VALID,0.542969,
2011-04-19, 00:31:04,VALID,999.455,VALID,0,VALID,92.5397,VALID,0,VALID,23.389,VALID,43,VALID,0.446875,
2011-04-19, 00:32:04,VALID,999.438,VALID,0,VALID,92.5168,VALID,0,VALID,23.389,VALID,43,VALID,0.00195313,
2011-04-19, 00:33:04,VALID,999.423,VALID,0,VALID,92.4786,VALID,0,VALID,23.3908,VALID,43,VALID,0,
2011-04-19, 00:34:04,VALID,999.4,VALID,0,VALID,92.4405,VALID,0,VALID,23.311,VALID,43,VALID,0.491797,
2011-04-19, 00:35:04,VALID,999.38,VALID,0,VALID,92.4023,VALID,0,VALID,23.3323,VALID,39,VALID,0.66875,
2011-04-19, 00:36:04,VALID,999.362,VALID,0,VALID,92.3566,VALID,0,VALID,23.2719,VALID,22,VALID,0.778516,
2011-04-19, 00:37:04,VALID,999.323,VALID,0,VALID,92.3108,VALID,0,VALID,23.2542,VALID,22,VALID,0.737109,
2011-04-19, 00:38:04,VALID,999.31,VALID,0,VALID,92.3184,VALID,0,VALID,23.2524,VALID,22,VALID,0.503516,
2011-04-19, 00:39:04,VALID,999.287,VALID,0,VALID,92.2955,VALID,0,VALID,23.2737,VALID,22,VALID,0.417578,
2011-04-19, 00:40:04,VALID,999.257,VALID,0,VALID,92.3031,VALID,0,VALID,23.2329,VALID,22,VALID,0.460547,
2011-04-19, 00:41:04,VALID,999.194,VALID,0,VALID,92.2803,VALID,0,VALID,23.2329,VALID,22,VALID,0.482812,
2011-04-19, 00:42:04,VALID,999.21,VALID,0,VALID,92.2879,VALID,0,VALID,23.2542,VALID,22,VALID,0.496875,
2011-04-19, 00:43:04,VALID,999.173,VALID,0,VALID,92.2879,VALID,0,VALID,23.2329,VALID,22,VALID,0.507813,
2011-04-19, 00:44:04,VALID,999.175,VALID,0,VALID,92.2726,VALID,0,VALID,23.2329,VALID,27,VALID,0.680078,
2011-04-19, 00:45:04,VALID,999.145,VALID,0,VALID,92.326,VALID,0,VALID,23.2542,VALID,45,VALID,0.696094,
2011-04-19, 00:46:04,VALID,999.113,VALID,0,VALID,92.3337,VALID,0,VALID,23.2737,VALID,45,VALID,0.708594,
2011-04-19, 00:47:04,VALID,999.109,VALID,0,VALID,92.3489,VALID,0,VALID,23.2524,VALID,59,VALID,0.771484,
2011-04-19, 00:48:04,VALID,999.084,VALID,0,VALID,92.3566,VALID,0,VALID,23.2719,VALID,61,VALID,0.653906,
2011-04-19, 00:49:04,VALID,999.065,VALID,0,VALID,92.3337,VALID,0,VALID,23.2524,VALID,73,VALID,0.604297,
2011-04-19, 00:50:04,VALID,999.032,VALID,0,VALID,92.3108,VALID,0,VALID,23.2329,VALID,73,VALID,0.705859,
2011-04-19, 00:51:04,VALID,999.039,VALID,0,VALID,92.3184,VALID,0,VALID,23.2524,VALID,73,VALID,0.624219,
2011-04-19, 00:52:04,VALID,999.046,VALID,0,VALID,92.3108,VALID,0,VALID,23.2719,VALID,73,VALID,0.371875,
2011-04-19, 00:53:04,VALID,999.103,VALID,0,VALID,92.3413,VALID,0,VALID,23.2719,VALID,73,VALID,0.144141,
2011-04-19, 00:54:04,VALID,999.088,VALID,0,VALID,92.3337,VALID,0,VALID,23.2915,VALID,73,VALID,0,
2011-04-19, 00:55:04,VALID,999.1,VALID,0,VALID,92.3184,VALID,0,VALID,23.2719,VALID,73,VALID,0.00078125,
2011-04-19, 00:56:04,VALID,999.078,VALID,0,VALID,92.3031,VALID,0,VALID,23.2932,VALID,73,VALID,0.199609,
2011-04-19, 00:57:04,VALID,999.049,VALID,0,VALID,92.3184,VALID,0,VALID,23.2524,VALID,73,VALID,0,
2011-04-19, 00:58:04,VALID,999.045,VALID,0,VALID,92.3184,VALID,0,VALID,23.2719,VALID,73,VALID,0,
2011-04-19, 00:59:04,VALID,999.071,VALID,0,VALID,92.3413,VALID,0,VALID,23.2524,VALID,77,VALID,0.507813,
2011-04-19, 01:00:04,VALID,999.04,VALID,0,VALID,92.3337,VALID,0,VALID,23.2719,VALID,87,VALID,0.130859,
2011-04-19, 01:01:04,VALID,999.038,VALID,0,VALID,92.3566,VALID,0,VALID,23.2719,VALID,87,VALID,0,
2011-04-19, 01:02:04,VALID,999.036,VALID,0,VALID,92.326,VALID,0,VALID,23.2524,VALID,87,VALID,0,
2011-04-19, 01:03:04,VALID,999.062,VALID,0,VALID,92.3337,VALID,0,VALID,23.2915,VALID,87,VALID,0.330859,
2011-04-19, 01:04:04,VALID,999.021,VALID,0,VALID,92.3642,VALID,0,VALID,23.311,VALID,87,VALID,0.232422,
2011-04-19, 01:05:04,VALID,999.028,VALID,0,VALID,92.3413,VALID,0,VALID,23.3305,VALID,87,VALID,0.307422,
2011-04-19, 01:06:04,VALID,999.022,VALID,0,VALID,92.3337,VALID,0,VALID,23.3695,VALID,139,VALID,0.375391,
2011-04-19, 01:07:04,VALID,999.008,VALID,0,VALID,92.2955,VALID,0,VALID,23.3695,VALID,165,VALID,0.826953,
2011-04-19, 01:08:04,VALID,999.03,VALID,0,VALID,92.2803,VALID,0,VALID,23.4085,VALID,157,VALID,0.666406,
2011-04-19, 01:09:04,VALID,999.045,VALID,0,VALID,92.2268,VALID,0,VALID,23.4475,VALID,159,VALID,0.949609,
2011-04-19, 01:10:04,VALID,999.063,VALID,0,VALID,92.1429,VALID,0,VALID,23.5079,VALID,159,VALID,0.891797,
2011-04-19, 01:11:04,VALID,999.055,VALID,0,VALID,92.0132,VALID,0,VALID,23.5061,VALID,159,VALID,0.809375,
2011-04-19, 01:12:04,VALID,999.076,VALID,0,VALID,91.8454,VALID,0,VALID,23.5451,VALID,159,VALID,0.964844,
2011-04-19, 01:13:04,VALID,999.07,VALID,0,VALID,91.647,VALID,0,VALID,23.5451,VALID,164,VALID,0.7875,
2011-04-19, 01:14:04,VALID,999.086,VALID,0,VALID,91.4868,VALID,0,VALID,23.5841,VALID,165,VALID,0.630859,
2011-04-19, 01:15:04,VALID,999.091,VALID,0,VALID,91.3647,VALID,0,VALID,23.6036,VALID,165,VALID,0.717188,
2011-04-19, 01:16:04,VALID,999.08,VALID,0,VALID,91.2503,VALID,0,VALID,23.6445,VALID,164,VALID,0.576172,
2011-04-19, 01:17:04,VALID,999.102,VALID,0,VALID,91.1282,VALID,0,VALID,23.6427,VALID,164,VALID,0.346484,
2011-04-19, 01:18:04,VALID,999.061,VALID,0,VALID,91.0443,VALID,0,VALID,23.6232,VALID,164,VALID,0.119531,
2011-04-19, 01:19:04,VALID,999.065,VALID,0,VALID,90.9374,VALID,0,VALID,23.6427,VALID,164,VALID,0.0308594,
2011-04-19, 01:20:04,VALID,999.064,VALID,0,VALID,90.9069,VALID,0,VALID,23.6427,VALID,164,VALID,0.328516,
2011-04-19, 01:21:04,VALID,999.087,VALID,0,VALID,90.8154,VALID,0,VALID,23.6427,VALID,39,VALID,0.604297,
2011-04-19, 01:22:04,VALID,999.123,VALID,0,VALID,90.5483,VALID,0,VALID,23.5646,VALID,28,VALID,0.669141,
2011-04-19, 01:23:04,VALID,999.146,VALID,0,VALID,90.4644,VALID,0,VALID,23.5451,VALID,28,VALID,0.709766,
2011-04-19, 01:24:04,VALID,999.189,VALID,0,VALID,90.4797,VALID,0,VALID,23.5469,VALID,28,VALID,0.396484,
2011-04-19, 01:25:04,VALID,999.241,VALID,0,VALID,90.4568,VALID,0,VALID,23.5061,VALID,348,VALID,0.739062,
2011-04-19, 01:26:04,VALID,999.301,VALID,0,VALID,90.678,VALID,0,VALID,23.5256,VALID,321,VALID,1.76367,
2011-04-19, 01:27:04,VALID,999.316,VALID,0,VALID,91.0443,VALID,0,VALID,23.5451,VALID,332,VALID,1.6832,
2011-04-19, 01:28:04,VALID,999.307,VALID,0,VALID,91.2655,VALID,0,VALID,23.5451,VALID,355,VALID,1.53125,
2011-04-19, 01:29:04,VALID,999.302,VALID,0,VALID,91.4334,VALID,0,VALID,23.5841,VALID,351,VALID,2.5082,
2011-04-19, 01:30:04,VALID,999.325,VALID,0,VALID,91.4257,VALID,0,VALID,23.6817,VALID,349,VALID,1.725,
2011-04-19, 01:31:04,VALID,999.315,VALID,0,VALID,91.3647,VALID,0,VALID,23.7402,VALID,3,VALID,1.56055,
2011-04-19, 01:32:04,VALID,999.309,VALID,0,VALID,91.1053,VALID,0,VALID,23.7793,VALID,356,VALID,1.85273,
2011-04-19, 01:33:04,VALID,999.319,VALID,0,VALID,90.7543,VALID,0,VALID,23.8573,VALID,7,VALID,2.14609,
2011-04-19, 01:34:04,VALID,999.357,VALID,0,VALID,90.3423,VALID,0,VALID,23.9372,VALID,355,VALID,1.48359,
2011-04-19, 01:35:04,VALID,999.405,VALID,0,VALID,89.7472,VALID,0,VALID,24.0134,VALID,351,VALID,1.40234,
2011-04-19, 01:36:04,VALID,999.395,VALID,0,VALID,89.175,VALID,0,VALID,24.1305,VALID,322,VALID,0.460547,
2011-04-19, 01:37:04,VALID,999.456,VALID,0,VALID,88.8622,VALID,0,VALID,24.1696,VALID,263,VALID,0.767969,
2011-04-19, 01:38:04,VALID,999.486,VALID,0,VALID,88.5417,VALID,0,VALID,24.2086,VALID,276,VALID,0.846875,
2011-04-19, 01:39:04,VALID,999.493,VALID,0,VALID,88.5799,VALID,0,VALID,24.2495,VALID,256,VALID,0.530078,
2011-04-19, 01:40:04,VALID,999.507,VALID,0,VALID,88.6104,VALID,0,VALID,24.2281,VALID,300,VALID,0.834766,
2011-04-19, 01:41:04,VALID,999.496,VALID,0,VALID,88.7935,VALID,0,VALID,24.2281,VALID,336,VALID,0.682813,
2011-04-19, 01:42:04,VALID,999.526,VALID,0,VALID,88.9537,VALID,0,VALID,24.2086,VALID,313,VALID,0.866016,
2011-04-19, 01:43:04,VALID,999.545,VALID,0,VALID,89.1368,VALID,0,VALID,24.2086,VALID,275,VALID,0.562891,
2011-04-19, 01:44:04,VALID,999.545,VALID,0,VALID,89.2055,VALID,0,VALID,24.1696,VALID,252,VALID,0.527734,
2011-04-19, 01:45:04,VALID,999.494,VALID,0,VALID,89.2971,VALID,0,VALID,24.15,VALID,315,VALID,0.548437,
2011-04-19, 01:46:04,VALID,999.492,VALID,0,VALID,89.4649,VALID,0,VALID,24.1519,VALID,344,VALID,0.989844,
2011-04-19, 01:47:04,VALID,999.484,VALID,0,VALID,89.648,VALID,0,VALID,24.1305,VALID,354,VALID,1.08711,
2011-04-19, 01:48:04,VALID,999.478,VALID,0,VALID,89.8083,VALID,0,VALID,24.111,VALID,350,VALID,0.885156,
2011-04-19, 01:49:04,VALID,999.495,VALID,0,VALID,89.9761,VALID,0,VALID,24.0915,VALID,327,VALID,1.10508,
2011-04-19, 01:50:04,VALID,999.492,VALID,0,VALID,90.0677,VALID,0,VALID,24.0525,VALID,318,VALID,1.03008,
2011-04-19, 01:51:04,VALID,999.513,VALID,0,VALID,90.144,VALID,0,VALID,24.0525,VALID,286,VALID,0.932422,
2011-04-19, 01:52:04,VALID,999.591,VALID,0,VALID,90.266,VALID,0,VALID,24.0525,VALID,280,VALID,1.30664,
2011-04-19, 01:53:04,VALID,999.603,VALID,0,VALID,90.3423,VALID,0,VALID,24.0543,VALID,287,VALID,1.2625,
2011-04-19, 01:54:04,VALID,999.61,VALID,0,VALID,90.4339,VALID,0,VALID,24.0329,VALID,276,VALID,0.293359,
2011-04-19, 01:55:04,VALID,999.563,VALID,0,VALID,90.5254,VALID,0,VALID,24.0348,VALID,232,VALID,0.824609,
2011-04-19, 01:56:04,VALID,999.519,VALID,0.5,VALID,90.617,VALID,0,VALID,23.9939,VALID,304,VALID,3.91172,
2011-04-19, 01:57:04,VALID,999.646,VALID,0,VALID,90.6094,VALID,0,VALID,23.9939,VALID,250,VALID,2.82734,
2011-04-19, 01:58:04,VALID,999.68,VALID,0,VALID,90.5483,VALID,0,VALID,23.9567,VALID,265,VALID,2.91563,
2011-04-19, 01:59:04,VALID,999.72,VALID,0,VALID,90.6094,VALID,0,VALID,23.9177,VALID,291,VALID,2.2582,
2011-04-19, 02:00:04,VALID,999.718,VALID,0,VALID,90.4568,VALID,0,VALID,23.836,VALID,289,VALID,2.42773,
2011-04-19, 02:01:04,VALID,999.687,VALID,0,VALID,90.3881,VALID,0.112286,VALID,23.8183,VALID,281,VALID,2.38008,
2011-04-19, 02:02:04,VALID,999.745,VALID,0.5,VALID,90.411,VALID,0,VALID,23.6799,VALID,247,VALID,2.06914,
2011-04-19, 02:03:04,VALID,999.784,VALID,0,VALID,90.5254,VALID,0.112286,VALID,23.5646,VALID,276,VALID,2.98281,
2011-04-19, 02:04:04,VALID,999.776,VALID,0.5,VALID,90.7772,VALID,0.112286,VALID,23.4263,VALID,273,VALID,3.64844,
2011-04-19, 02:05:04,VALID,999.811,VALID,0.5,VALID,91.0366,VALID,0.112286,VALID,23.3482,VALID,272,VALID,2.69492,
2011-04-19, 02:06:04,VALID,999.818,VALID,0.5,VALID,91.2579,VALID,0,VALID,23.2719,VALID,284,VALID,3.02617,
2011-04-19, 02:07:04,VALID,999.797,VALID,0.5,VALID,91.5097,VALID,0.112286,VALID,23.1921,VALID,286,VALID,2.88633,
2011-04-19, 02:08:04,VALID,999.746,VALID,0.5,VALID,91.7004,VALID,0.112286,VALID,23.1744,VALID,293,VALID,3.6668,
2011-04-19, 02:09:04,VALID,999.714,VALID,0.5,VALID,91.8454,VALID,0,VALID,23.1336,VALID,230,VALID,0.550781,
2011-04-19, 02:10:04,VALID,999.675,VALID,0.5,VALID,92.0285,VALID,0.112286,VALID,23.0751,VALID,297,VALID,2.62578,
2011-04-19, 02:11:04,VALID,999.709,VALID,0.5,VALID,92.0971,VALID,0,VALID,22.9971,VALID,284,VALID,2.82461,
2011-04-19, 02:12:04,VALID,999.671,VALID,0.5,VALID,92.1582,VALID,0,VALID,22.9385,VALID,325,VALID,2.70859,
2011-04-19, 02:13:04,VALID,999.693,VALID,0,VALID,92.2268,VALID,0,VALID,22.8995,VALID,310,VALID,2.53203,
2011-04-19, 02:14:05,VALID,999.767,VALID,0.5,VALID,92.2879,VALID,0.112286,VALID,22.88,VALID,300,VALID,2.31758,
2011-04-19, 02:15:04,VALID,999.742,VALID,0,VALID,92.3489,VALID,0,VALID,22.8818,VALID,286,VALID,2.8625,
2011-04-19, 02:16:05,VALID,999.702,VALID,0.5,VALID,92.4023,VALID,0,VALID,22.8427,VALID,283,VALID,1.71914,
2011-04-19, 02:17:05,VALID,999.738,VALID,0,VALID,92.4786,VALID,0,VALID,22.8427,VALID,259,VALID,0.966016,
2011-04-19, 02:18:05,VALID,999.701,VALID,0.5,VALID,92.532,VALID,0,VALID,22.8427,VALID,262,VALID,1.58789,
2011-04-19, 02:19:05,VALID,999.645,VALID,0,VALID,92.5778,VALID,0,VALID,22.8037,VALID,290,VALID,0.780469,
2011-04-19, 02:20:05,VALID,999.651,VALID,0,VALID,92.6465,VALID,0,VALID,22.8037,VALID,302,VALID,1.34961,
2011-04-19, 02:21:05,VALID,999.587,VALID,0.5,VALID,92.6923,VALID,0,VALID,22.7842,VALID,331,VALID,1.32031,
2011-04-19, 02:22:05,VALID,999.481,VALID,0.5,VALID,92.7304,VALID,0,VALID,22.7274,VALID,324,VALID,1.94141,
2011-04-19, 02:23:05,VALID,999.422,VALID,0.5,VALID,92.7228,VALID,0,VALID,22.5892,VALID,306,VALID,1.00312,
2011-04-19, 02:24:05,VALID,999.377,VALID,0.5,VALID,92.7151,VALID,0,VALID,22.5306,VALID,334,VALID,1.35508,
2011-04-19, 02:25:05,VALID,999.286,VALID,0.5,VALID,92.738,VALID,0,VALID,22.5323,VALID,356,VALID,1.64414,
2011-04-19, 02:26:05,VALID,999.238,VALID,0.5,VALID,92.7457,VALID,0,VALID,22.4526,VALID,198,VALID,0.576953,
2011-04-19, 02:27:05,VALID,999.226,VALID,0.5,VALID,92.7533,VALID,0,VALID,22.4136,VALID,301,VALID,1.03086,
2011-04-19, 02:28:05,VALID,999.188,VALID,0.5,VALID,92.7685,VALID,0,VALID,22.3746,VALID,333,VALID,1.3582,
2011-04-19, 02:29:05,VALID,999.156,VALID,0,VALID,92.7762,VALID,0,VALID,22.3746,VALID,341,VALID,0.676172,
2011-04-19, 02:30:05,VALID,999.135,VALID,0.5,VALID,92.7991,VALID,0,VALID,22.3551,VALID,339,VALID,1.07148,
2011-04-19, 02:31:05,VALID,999.087,VALID,0,VALID,92.8525,VALID,0,VALID,22.3551,VALID,340,VALID,1.11719,
2011-04-19, 02:32:05,VALID,999.089,VALID,0,VALID,92.8754,VALID,0,VALID,22.3958,VALID,8,VALID,1.28711,
2011-04-19, 02:33:05,VALID,999.071,VALID,0,VALID,92.8906,VALID,0,VALID,22.3763,VALID,5,VALID,1.4457,
2011-04-19, 02:34:05,VALID,999.097,VALID,0.5,VALID,92.9135,VALID,0,VALID,22.3958,VALID,17,VALID,1.49766,
2011-04-19, 02:35:05,VALID,999.047,VALID,0,VALID,92.9211,VALID,0,VALID,22.4153,VALID,31,VALID,0.878906,
2011-04-19, 02:36:05,VALID,999.032,VALID,0,VALID,92.9364,VALID,0,VALID,22.3941,VALID,52,VALID,0.567187,
2011-04-19, 02:37:05,VALID,998.999,VALID,0,VALID,92.9517,VALID,0,VALID,22.3941,VALID,52,VALID,0.159375,
2011-04-19, 02:38:05,VALID,998.945,VALID,0.5,VALID,92.9669,VALID,0,VALID,22.3941,VALID,156,VALID,1.10625,
2011-04-19, 02:39:05,VALID,998.908,VALID,0,VALID,93.0203,VALID,0,VALID,22.4738,VALID,150,VALID,1.53555,
2011-04-19, 02:40:05,VALID,998.86,VALID,0,VALID,93.0051,VALID,0,VALID,22.4526,VALID,136,VALID,1.7582,
2011-04-19, 02:41:05,VALID,998.792,VALID,0,VALID,93.0051,VALID,0,VALID,22.4526,VALID,123,VALID,1.93359,
2011-04-19, 02:42:05,VALID,998.77,VALID,0,VALID,92.9822,VALID,0,VALID,22.4543,VALID,124,VALID,1.71094,
2011-04-19, 02:43:05,VALID,998.744,VALID,0,VALID,92.9822,VALID,0,VALID,22.4543,VALID,127,VALID,1.95625,
2011-04-19, 02:44:05,VALID,998.737,VALID,0,VALID,92.944,VALID,0,VALID,22.4348,VALID,119,VALID,2.31484,
2011-04-19, 02:45:05,VALID,998.686,VALID,0,VALID,92.9288,VALID,0,VALID,22.4136,VALID,114,VALID,2.12734,
2011-04-19, 02:46:05,VALID,998.713,VALID,0,VALID,92.9364,VALID,0,VALID,22.4543,VALID,131,VALID,1.92461,
2011-04-19, 02:47:05,VALID,998.713,VALID,0,VALID,92.8983,VALID,0,VALID,22.4136,VALID,135,VALID,2.11172,
2011-04-19, 02:48:05,VALID,998.755,VALID,0,VALID,92.883,VALID,0,VALID,22.4543,VALID,146,VALID,1.96563,
2011-04-19, 02:49:05,VALID,998.743,VALID,0,VALID,92.8754,VALID,0,VALID,22.4721,VALID,130,VALID,1.84258,
2011-04-19, 02:50:05,VALID,998.694,VALID,0,VALID,92.8448,VALID,0,VALID,22.4738,VALID,123,VALID,2.27813,
2011-04-19, 02:51:05,VALID,998.68,VALID,0,VALID,92.8296,VALID,0,VALID,22.4738,VALID,124,VALID,2.04414,
2011-04-19, 02:52:05,VALID,998.685,VALID,0,VALID,92.8067,VALID,0,VALID,22.4721,VALID,117,VALID,2.63984,
2011-04-19, 02:53:05,VALID,998.685,VALID,0,VALID,92.822,VALID,0,VALID,22.5111,VALID,117,VALID,1.6043,
2011-04-19, 02:54:05,VALID,998.659,VALID,0,VALID,92.822,VALID,0,VALID,22.5306,VALID,110,VALID,1.41445,
2011-04-19, 02:55:05,VALID,998.67,VALID,0,VALID,92.8525,VALID,0,VALID,22.6104,VALID,132,VALID,2.79297,
2011-04-19, 02:56:05,VALID,998.633,VALID,0,VALID,92.8677,VALID,0,VALID,22.6689,VALID,120,VALID,1.84219,
2011-04-19, 02:57:05,VALID,998.594,VALID,0,VALID,92.8983,VALID,0,VALID,22.6867,VALID,135,VALID,1.3625,
2011-04-19, 02:58:05,VALID,998.577,VALID,0,VALID,92.9288,VALID,0,VALID,22.7062,VALID,139,VALID,1.71992,
2011-04-19, 02:59:05,VALID,998.596,VALID,0,VALID,92.9288,VALID,0,VALID,22.7062,VALID,141,VALID,1.84258,
2011-04-19, 03:00:05,VALID,998.514,VALID,0,VALID,92.944,VALID,0,VALID,22.7469,VALID,116,VALID,1.93242,
2011-04-19, 03:01:05,VALID,998.496,VALID,0,VALID,92.944,VALID,0,VALID,22.7469,VALID,127,VALID,1.59023,
2011-04-19, 03:02:05,VALID,998.448,VALID,0,VALID,92.9211,VALID,0,VALID,22.7664,VALID,117,VALID,1.13281,
2011-04-19, 03:03:05,VALID,998.426,VALID,0,VALID,92.9364,VALID,0,VALID,22.7452,VALID,103,VALID,0.848047,
2011-04-19, 03:04:05,VALID,998.455,VALID,0,VALID,92.9288,VALID,0,VALID,22.7647,VALID,97,VALID,0.591406,
2011-04-19, 03:05:05,VALID,998.449,VALID,0,VALID,92.9211,VALID,0,VALID,22.786,VALID,63,VALID,0.682422,
2011-04-19, 03:06:05,VALID,998.454,VALID,0,VALID,92.9593,VALID,0,VALID,22.786,VALID,359,VALID,0.658984,
2011-04-19, 03:07:05,VALID,998.47,VALID,0,VALID,92.9669,VALID,0,VALID,22.7647,VALID,311,VALID,0.660937,
2011-04-19, 03:08:05,VALID,998.44,VALID,0,VALID,92.9974,VALID,0,VALID,22.7647,VALID,311,VALID,0.123828,
2011-04-19, 03:09:05,VALID,998.404,VALID,0,VALID,92.9669,VALID,0,VALID,22.7452,VALID,311,VALID,0.447266,
2011-04-19, 03:10:05,VALID,998.387,VALID,0,VALID,93.0127,VALID,0,VALID,22.7469,VALID,311,VALID,0.269922,
2011-04-19, 03:11:05,VALID,998.353,VALID,0,VALID,93.0127,VALID,0,VALID,22.7452,VALID,311,VALID,0.410547,
2011-04-19, 03:12:05,VALID,998.366,VALID,0,VALID,93.0432,VALID,0,VALID,22.7257,VALID,339,VALID,0.667188,
2011-04-19, 03:13:05,VALID,998.354,VALID,0,VALID,93.0585,VALID,0,VALID,22.7257,VALID,55,VALID,0.881641,
2011-04-19, 03:14:05,VALID,998.337,VALID,0,VALID,93.0432,VALID,0,VALID,22.7257,VALID,75,VALID,1.00234,
2011-04-19, 03:15:05,VALID,998.338,VALID,0.5,VALID,93.0814,VALID,0,VALID,22.7452,VALID,92,VALID,0.791797,
2011-04-19, 03:16:05,VALID,998.335,VALID,0,VALID,93.0737,VALID,0,VALID,22.7452,VALID,92,VALID,0.528125,
2011-04-19, 03:17:05,VALID,998.325,VALID,0,VALID,93.0585,VALID,0,VALID,22.786,VALID,92,VALID,0.878125,
2011-04-19, 03:18:05,VALID,998.291,VALID,0,VALID,93.0661,VALID,0,VALID,22.7842,VALID,92,VALID,0.774219,
2011-04-19, 03:19:05,VALID,998.328,VALID,0,VALID,93.0737,VALID,0,VALID,22.8055,VALID,92,VALID,0.441797,
2011-04-19, 03:20:05,VALID,998.326,VALID,0,VALID,93.0661,VALID,0,VALID,22.825,VALID,85,VALID,0.783984,
2011-04-19, 03:21:05,VALID,998.308,VALID,0,VALID,93.0585,VALID,0,VALID,22.8037,VALID,61,VALID,1.12109,
2011-04-19, 03:22:05,VALID,998.319,VALID,0,VALID,93.0508,VALID,0,VALID,22.8232,VALID,52,VALID,1.18125,
2011-04-19, 03:23:05,VALID,998.312,VALID,0,VALID,93.0661,VALID,0,VALID,22.8232,VALID,40,VALID,1.02305,
2011-04-19, 03:24:05,VALID,998.302,VALID,0,VALID,93.0661,VALID,0,VALID,22.8037,VALID,40,VALID,1.14844,
2011-04-19, 03:25:05,VALID,998.282,VALID,0,VALID,93.0661,VALID,0,VALID,22.8232,VALID,47,VALID,1.30352,
2011-04-19, 03:26:05,VALID,998.283,VALID,0,VALID,93.0814,VALID,0,VALID,22.8232,VALID,42,VALID,1.27148,
2011-04-19, 03:27:05,VALID,998.271,VALID,0,VALID,93.0737,VALID,0,VALID,22.8427,VALID,42,VALID,1.11094,
2011-04-19, 03:28:05,VALID,998.266,VALID,0,VALID,93.0661,VALID,0,VALID,22.8427,VALID,46,VALID,1.04883,
2011-04-19, 03:29:05,VALID,998.273,VALID,0,VALID,93.0966,VALID,0,VALID,22.8427,VALID,44,VALID,0.840625,
2011-04-19, 03:30:05,VALID,998.263,VALID,0,VALID,93.0966,VALID,0,VALID,22.8427,VALID,42,VALID,0.709375,
2011-04-19, 03:31:05,VALID,998.293,VALID,0,VALID,93.1043,VALID,0,VALID,22.8445,VALID,18,VALID,0.690625,
2011-04-19, 03:32:05,VALID,998.301,VALID,0,VALID,93.1119,VALID,0,VALID,22.8232,VALID,357,VALID,0.536719,
2011-04-19, 03:33:05,VALID,998.316,VALID,0,VALID,93.1195,VALID,0,VALID,22.8232,VALID,357,VALID,0.81875,
2011-04-19, 03:34:05,VALID,998.374,VALID,0,VALID,93.1348,VALID,0,VALID,22.8232,VALID,357,VALID,0.8875,
2011-04-19, 03:35:05,VALID,998.376,VALID,0,VALID,93.1271,VALID,0,VALID,22.8427,VALID,356,VALID,0.698047,
2011-04-19, 03:36:05,VALID,998.398,VALID,0,VALID,93.1653,VALID,0,VALID,22.8623,VALID,359,VALID,0.478125,
2011-04-19, 03:37:05,VALID,998.371,VALID,0,VALID,93.15,VALID,0,VALID,22.8623,VALID,5,VALID,0.541016,
2011-04-19, 03:38:05,VALID,998.428,VALID,0,VALID,93.1882,VALID,0,VALID,22.8623,VALID,5,VALID,0.552344,
2011-04-19, 03:39:05,VALID,998.429,VALID,0,VALID,93.1729,VALID,0,VALID,22.8427,VALID,5,VALID,0.552734,
2011-04-19, 03:40:05,VALID,998.45,VALID,0,VALID,93.1958,VALID,0,VALID,22.8427,VALID,5,VALID,0.296484,
2011-04-19, 03:41:05,VALID,998.465,VALID,0,VALID,93.1958,VALID,0,VALID,22.8427,VALID,5,VALID,0.290625,
2011-04-19, 03:42:05,VALID,998.478,VALID,0,VALID,93.2034,VALID,0,VALID,22.8427,VALID,5,VALID,0.287891,
2011-04-19, 03:43:05,VALID,998.504,VALID,0,VALID,93.2187,VALID,0,VALID,22.8232,VALID,5,VALID,0.659375,
2011-04-19, 03:44:05,VALID,998.506,VALID,0,VALID,93.2263,VALID,0,VALID,22.864,VALID,204,VALID,0.841406,
2011-04-19, 03:45:05,VALID,998.529,VALID,0,VALID,93.234,VALID,0,VALID,22.8623,VALID,206,VALID,0.803906,
2011-04-19, 03:46:05,VALID,998.505,VALID,0,VALID,93.2263,VALID,0,VALID,22.8623,VALID,206,VALID,0.611719,